Вернуться в каталог

GONETS D1 1

АктивенСвязьPO
NORAD 23787·PAYLOAD·🇷🇺 Russia

Запущен Feb 19, 1996 с Plesetsk Cosmodrome

Loading…

Ближайшие Пролёты (ближайшие 24 часа)

TLE

СвежийSource: Space-Track

Эпоха: Sep 14, 2026, 10:24 UTC

1 23787U 96009A   26257.43382794  .00000007  00000-0 -21576-4 0  9996
2 23787  82.5725 241.7334 0010704 193.5950 333.0909 12.64108865410582

Отслеживайте GONETS D1 1 в реальном времени с AllMySat

Download on the App Store